カタログに戻る

ONEWEB-0648

運用中通信PO
NORAD 55811·PAYLOAD·🇬🇧 United Kingdom

打ち上げ Mar 9, 2023 から Cape Canaveral Space Force Station

Loading…

次のパス (今後24時間)

TLE

最新Source: CelesTrak SupGP

元期: Sep 14, 2026, 15:33 UTC

1 55811C 23029R   26257.64808287 -.00002524  00000+0 -68159-2 0  2573
2 55811  87.8903 271.8637 0002317  69.9166  32.7186 13.14508496    10

AllMySatでONEWEB-0648をリアルタイム追跡

Download on the App Store